DRUMS

导读

DRUMS(鼓卫星)是日本川崎重工业株式会社设计研发的技术试验卫星,于2021年11月9日发射升空。该卫星总质量62kg,运行在轨道高度514km×537km、倾角97.4°的近地轨道,任务目标是研制用于观测、交会和捕获轨道碎片的探测仪器,任务期间还将释放两颗目标子卫星开展相关试验,为空间碎片治理技术积累数据。

Basic Information
目录编号:
49401
目录名称:
DRUMS
国际标识:
2021-102G
轨道中心:
EARTH
卫星名称:
DRUMS
卫星全名:
--
卫星状态:
在轨 (已飞行1760 天)
发射日期:
2021-11-09 UTC
国别 :
日本 (JP)
星等 :
--
Orbit Information
数据来源 国际轨道数据
星历时间: 2026-09-03T21:39:31+0800
22小时前
查看轨道信息
半长轴: 6880.536km
偏心率: 0.0013653
轨道倾角: 97.325°
近地点辐角 322.908°
升交点赤经 281.522°
平近点角 37.121°
近地点: 493.005km
远地点: 511.793km
周期: 94.666分钟
每日圈数: 15.211409
Detailed Information
使用方式:
暂无
2D Orbit Map
3D Orbit Map
Orbit Altitude Analysis Chart
Orbit Inclination Analysis Chart
Orbit Comprehensive Analysis Chart
View Comprehensive Chart
Conjunction Data List
Event ID Objects TCA Miss Dist (km) Collision Risk Probability Collision Risk Index (CRI) Action
CDM_260906-114704-940106-837121
DRUMS (49401)
2026-09-06T
11:47:51+0000
1.344 km
极远距离
2.782109E-6 低风险 0.44
CDM_260903-083104-940105-319021
DRUMS (49401)
2026-09-03T
08:31:21+0000
1.454 km
极远距离
2.476349E-6 低风险 0.43